Location: *
(50.0228°S, 177.2688°W)
Time: 09:22:05
(UTC+00:00)

Cosmos 2056 Rocket - Pass Details

Date: 07 April 2020
Orbit: 742 x 800 km, 74.0° (Epoch: 06 June)

Event Time Altitude Azimuth Distance (km) Brightness Sun altitude
Rises 06:04:16 0° 343° (NNW) 3,208 7.0 -7.5°
Reaches altitude 10° 06:06:36 10° 344° (NNW) 2,298 6.2 -7.9°
Maximum altitude 06:11:50 78° 69° (ENE) 802 3.5 -8.7°
Drops below altitude 10° 06:17:12 10° 154° (SSE) 2,365 5.8 -9.6°
Sets 06:19:38 0° 155° (SSE) 3,309 6.5 -9.9°
